GW1401 Weather Reports


Display with metric or nautical units.
time (UTC)temp
F
wind
direction
speed
MPH
gust
MPH
rain 1hr
in
rain 24hr
in
rain mn
in
humidity
%
barometer
mb
20260904220253 102 348 2.0 2.0 0.00 0.00 0.00 45 1017.0
20260904215749 102 171 2.0 3.0 0.00 0.00 0.00 45 1017.0
20260904215244 101 33 2.0 3.0 0.00 0.00 0.00 44 1017.1
20260904214739 102 92 1.0 2.0 0.00 0.00 0.00 43 1017.0
20260904214235 102 127 1.0 3.0 0.00 0.00 0.00 42 1017.0
20260904213733 102 79 1.0 2.0 0.00 0.00 0.00 42 1017.2
20260904213229 101 140 1.0 2.0 0.00 0.00 0.00 45 1017.3
20260904212725 101 219 3.0 5.0 0.00 0.00 0.00 45 1017.2
20260904212219 102 121 1.0 3.0 0.00 0.00 0.00 44 1017.3
20260904211719 102 30 1.0 3.0 0.00 0.00 0.00 42 1017.3
20260904211214 102 212 1.0 2.0 0.00 0.00 0.00 43 1017.4
20260904210709 102 113 1.0 3.0 0.00 0.00 0.00 44 1017.3
20260904210204 102 39 3.0 5.0 0.00 0.00 0.00 43 1017.3
20260904205700 103 238 1.0 2.0 0.00 0.00 0.00 42 1017.3
20260904205156 102 151 1.0 3.0 0.00 0.00 0.00 43 1017.2
20260904204652 101 128 1.0 3.0 0.00 0.00 0.00 44 1017.3
20260904204147 101 238 2.0 5.0 0.00 0.00 0.00 44 1017.5
20260904203643 102 135 2.0 2.0 0.00 0.00 0.00 43 1017.5
20260904203140 101 240 3.0 5.0 0.00 0.00 0.00 44 1017.7
20260904202635 100 162 1.0 5.0 0.00 0.00 0.00 45 1017.6
20260904202131 100 113 1.0 5.0 0.00 0.00 0.00 44 1017.8
20260904201626 100 123 2.0 5.0 0.00 0.00 0.00 46 1018.0
20260904201121 100 28 1.0 3.0 0.00 0.00 0.00 45 1017.9
20260904200621 100 148 1.0 5.0 0.00 0.00 0.00 45 1017.8
20260904200116 100 315 3.0 6.0 0.00 0.00 0.00 46 1017.8
20260904195614 98 186 0.0 3.0 0.00 0.00 0.00 48 1017.9
20260904195108 98 108 0.0 2.0 0.00 0.00 0.00 48 1018.1
20260904194608 100 326 3.0 3.0 0.00 0.00 0.00 47 1018.3
20260904194103 101 142 0.0 3.0 0.00 0.00 0.00 44 1018.3
20260904193557 100 19 1.0 2.0 0.00 0.00 0.00 45 1018.3
20260904193054 101 191 3.0 6.0 0.00 0.00 0.00 45 1018.3
20260904192553 101 245 4.0 7.0 0.00 0.00 0.00 46 1018.5
20260904192049 99 20 2.0 2.0 0.00 0.00 0.00 44 1018.5
20260904191540 99 182 0.0 1.0 0.00 0.00 0.00 46 1018.7
20260904191036 100 317 2.0 5.0 0.00 0.00 0.00 44 1018.8
20260904190532 99 138 0.0 2.0 0.00 0.00 0.00 47 1018.8
20260904190028 100 69 0.0 3.0 0.00 0.00 0.00 46 1018.8
20260904185524 101 77 1.0 5.0 0.00 0.00 0.00 44 1018.8
20260904185018 100 158 2.0 5.0 0.00 0.00 0.00 45 1018.9
20260904184513 98 125 1.0 2.0 0.00 0.00 0.00 47 1019.0
20260904184008 99 121 1.0 7.0 0.00 0.00 0.00 46 1019.1
20260904183503 101 345 1.0 6.0 0.00 0.00 0.00 43 1019.3
20260904182958 103 137 0.0 3.0 0.00 0.00 0.00 44 1019.3
20260904182454 101 254 1.0 5.0 0.00 0.00 0.00 44 1019.2
20260904181953 101 200 2.0 6.0 0.00 0.00 0.00 44 1019.3
20260904181449 102 22 3.0 5.0 0.00 0.00 0.00 42 1019.2
20260904180944 101 271 3.0 3.0 0.00 0.00 0.00 43 1019.3
20260904180439 101 244 4.0 8.0 0.00 0.00 0.00 44 1019.4
20260904175938 101 192 2.0 3.0 0.00 0.00 0.00 45 1019.2
20260904175437 101 278 4.0 6.0 0.00 0.00 0.00 44 1019.5
20260904174932 100 106 3.0 5.0 0.00 0.00 0.00 46 1019.6
20260904174427 100 152 0.0 5.0 0.00 0.00 0.00 46 1019.5
20260904173924 100 35 2.0 6.0 0.00 0.00 0.00 46 1019.9
20260904173419 101 331 5.0 7.0 0.00 0.00 0.00 46 1019.9
20260904172914 100 98 0.0 5.0 0.00 0.00 0.00 46 1019.7
20260904172414 99 268 2.0 5.0 0.00 0.00 0.00 47 1019.7
20260904171903 99 295 1.0 6.0 0.00 0.00 0.00 46 1019.9
20260904171358 99 88 2.0 7.0 0.00 0.00 0.00 47 1019.8
20260904170854 98 168 0.0 3.0 0.00 0.00 0.00 47 1019.6
20260904170350 100 114 1.0 8.0 0.00 0.00 0.00 47 1019.9
20260904165844 101 130 2.0 2.0 0.00 0.00 0.00 46 1020.0
20260904165338 101 154 1.0 5.0 0.00 0.00 0.00 45 1019.8
20260904164832 101 119 1.0 5.0 0.00 0.00 0.00 45 1019.8
20260904164326 100 252 2.0 5.0 0.00 0.00 0.00 45 1019.9
20260904163824 100 211 3.0 3.0 0.00 0.00 0.00 46 1019.9
20260904163323 100 12 3.0 8.0 0.00 0.00 0.00 45 1020.0
20260904162822 100 54 4.0 7.0 0.00 0.00 0.00 46 1019.9
20260904162318 99 343 2.0 5.0 0.00 0.00 0.00 47 1019.8
20260904161813 99 272 3.0 3.0 0.00 0.00 0.00 48 1019.7
20260904161308 100 125 0.0 5.0 0.00 0.00 0.00 47 1020.0
20260904160804 100 220 2.0 5.0 0.00 0.00 0.00 45 1020.0
20260904160258 99 224 0.0 3.0 0.00 0.00 0.00 46 1020.0
20260904155753 98 264 4.0 6.0 0.00 0.00 0.00 48 1019.9
20260904155252 98 91 2.0 6.0 0.00 0.00 0.00 48 1020.0
20260904154751 99 331 2.0 5.0 0.00 0.00 0.00 49 1020.1
20260904154246 98 275 4.0 6.0 0.00 0.00 0.00 50 1020.0
20260904153741 99 124 1.0 2.0 0.00 0.00 0.00 49 1020.0
20260904153231 97 99 2.0 5.0 0.00 0.00 0.00 52 1020.1
20260904152727 98 356 3.0 5.0 0.00 0.00 0.00 53 1020.0
20260904152222 98 141 0.0 1.0 0.00 0.00 0.00 55 1019.9
20260904151717 98 152 0.0 1.0 0.00 0.00 0.00 55 1020.1
20260904151216 98 155 1.0 2.0 0.00 0.00 0.00 55 1020.0
20260904150712 97 112 0.0 1.0 0.00 0.00 0.00 56 1020.0
20260904150207 96 122 0.0 1.0 0.00 0.00 0.00 58 1019.9
20260904145705 96 174 3.0 3.0 0.00 0.00 0.00 59 1020.0
20260904145201 95 277 2.0 2.0 0.00 0.00 0.00 60 1020.1
20260904144656 94 142 1.0 3.0 0.00 0.00 0.00 62 1020.0
20260904144152 93 154 2.0 2.0 0.00 0.00 0.00 64 1020.1
20260904143647 93 132 1.0 2.0 0.00 0.00 0.00 64 1020.1
20260904143144 94 145 1.0 1.0 0.00 0.00 0.00 65 1020.0
20260904142640 93 138 1.0 2.0 0.00 0.00 0.00 64 1020.0
20260904142136 94 141 1.0 1.0 0.00 0.00 0.00 63 1020.0
20260904141630 92 167 0.0 0.0 0.00 0.00 0.00 66 1020.2
20260904141126 92 132 0.0 0.0 0.00 0.00 0.00 66 1020.1
20260904140621 91 128 0.0 0.0 0.00 0.00 0.00 69 1020.2
20260904140115 89 128 0.0 0.0 0.00 0.00 0.00 72 1020.3
20260904135614 88 130 0.0 1.0 0.00 0.00 0.00 74 1019.9
20260904135111 88 128 0.0 1.0 0.00 0.00 0.00 75 1019.8
20260904134606 86 131 0.0 0.0 0.00 0.00 0.00 79 1020.1
20260904134100 85 141 0.0 2.0 0.00 0.00 0.00 81 1020.0
20260904133555 85 137 1.0 1.0 0.00 0.00 0.00 81 1020.1
20260904133051 84 128 0.0 0.0 0.00 0.00 0.00 83 1020.2
20260904132551 82 134 1.0 1.0 0.00 0.00 0.00 87 1020.1
20260904132051 80 114 0.0 1.0 0.00 0.00 0.00 92 1020.1
20260904131545 78 131 0.0 0.0 0.00 0.00 0.00 99 1019.9
20260904131041 77 123 0.0 0.0 0.00 0.00 0.00 99 1020.1
20260904130540 76 122 0.0 0.0 0.00 0.00 0.00 99 1020.0
20260904130035 76 117 0.0 0.0 0.00 0.00 0.00 99 1020.2
20260904125532 76 124 0.0 0.0 0.00 0.00 0.00 99 1019.9
20260904125026 76 120 0.0 0.0 0.00 0.00 0.00 99 1019.9
20260904124522 75 122 0.0 0.0 0.00 0.00 0.00 99 1020.0
20260904124018 75 119 0.0 0.0 0.00 0.00 0.00 99 1019.8
20260904123517 75 123 0.0 0.0 0.00 0.00 0.00 99 1019.8
20260904123013 75 123 0.0 0.0 0.00 0.00 0.00 99 1019.8
20260904122508 74 123 0.0 0.0 0.00 0.00 0.00 99 1019.6
20260904122002 74 119 0.0 0.0 0.00 0.00 0.00 99 1019.7
20260904121458 73 120 0.0 0.0 0.00 0.00 0.00 99 1019.6
20260904120954 73 119 0.0 0.0 0.00 0.00 0.00 99 1019.7
20260904120449 73 119 0.0 0.0 0.00 0.00 0.00 99 1019.6
20260904115938 73 119 0.0 0.0 0.00 0.00 0.00 99 1019.6
20260904115433 73 108 0.0 0.0 0.00 0.00 0.00 99 1019.7
20260904114928 73 124 0.0 0.0 0.00 0.00 0.00 99 1019.6
20260904114427 72 126 0.0 0.0 0.00 0.00 0.00 99 1019.5
20260904113924 72 119 0.0 0.0 0.00 0.00 0.00 99 1019.6
20260904113423 72 124 0.0 0.0 0.00 0.00 0.00 99 1019.4
20260904112922 72 127 0.0 0.0 0.00 0.00 0.00 99 1019.4
20260904112418 72 122 0.0 0.0 0.00 0.00 0.00 99 1019.2
20260904111914 72 117 0.0 0.0 0.00 0.00 0.00 99 1019.3
20260904111409 72 116 0.0 0.0 0.00 0.00 0.00 99 1019.3
20260904110905 72 117 0.0 0.0 0.00 0.00 0.00 99 1019.2
20260904110403 72 113 0.0 0.0 0.00 0.00 0.00 99 1019.1
20260904105859 72 117 0.0 0.0 0.00 0.00 0.00 99 1019.2
20260904105354 72 117 0.0 0.0 0.00 0.00 0.00 99 1019.3
20260904104849 72 112 0.0 0.0 0.00 0.00 0.00 99 1019.2
20260904104344 72 120 0.0 0.0 0.00 0.00 0.00 99 1019.1
20260904103841 72 120 0.0 0.0 0.00 0.00 0.00 99 1019.1
20260904103341 72 120 0.0 0.0 0.00 0.00 0.00 99 1019.2
20260904102837 72 120 0.0 0.0 0.00 0.00 0.00 99 1019.1
20260904102332 72 120 0.0 0.0 0.00 0.00 0.00 99 1019.1
20260904101828 72 120 0.0 0.0 0.00 0.00 0.00 99 1019.1
20260904101324 72 122 0.0 0.0 0.00 0.00 0.00 99 1019.3
20260904100820 72 117 0.0 0.0 0.00 0.00 0.00 99 1019.1
20260904100315 72 117 0.0 0.0 0.00 0.00 0.00 99 1019.0
20260904095816 72 117 0.0 0.0 0.00 0.00 0.00 99 1019.1
20260904095310 73 117 0.0 0.0 0.00 0.00 0.00 99 1019.1
20260904094806 73 117 0.0 0.0 0.00 0.00 0.00 99 1019.0
20260904094301 73 119 0.0 0.0 0.00 0.00 0.00 99 1018.9
20260904093757 73 121 0.0 0.0 0.00 0.00 0.00 99 1018.7
20260904093257 73 124 0.0 0.0 0.00 0.00 0.00 99 1018.9
20260904092752 73 117 0.0 0.0 0.00 0.00 0.00 99 1018.9
20260904092249 73 117 0.0 0.0 0.00 0.00 0.00 99 1018.8
20260904091744 73 117 0.0 0.0 0.00 0.00 0.00 99 1018.7
20260904091239 73 123 0.0 0.0 0.00 0.00 0.00 99 1018.9
20260904090734 73 124 0.0 0.0 0.00 0.00 0.00 99 1018.9
20260904090225 73 117 0.0 0.0 0.00 0.00 0.00 99 1019.0
20260904085725 73 112 0.0 1.0 0.00 0.00 0.00 99 1019.2
20260904085220 73 126 1.0 1.0 0.00 0.00 0.00 99 1019.2
20260904084714 73 117 0.0 0.0 0.00 0.00 0.00 99 1019.1
20260904084210 73 117 0.0 0.0 0.00 0.00 0.00 99 1019.0
20260904083707 73 125 0.0 0.0 0.00 0.00 0.00 99 1018.9
20260904083203 73 121 0.0 0.0 0.00 0.00 0.00 99 1018.8
20260904082703 73 121 0.0 0.0 0.00 0.00 0.00 99 1019.0
20260904082158 73 121 0.0 0.0 0.00 0.00 0.00 99 1018.9
20260904081653 73 123 0.0 0.0 0.00 0.00 0.00 99 1018.9
20260904081149 73 123 0.0 0.0 0.00 0.00 0.00 99 1019.0
20260904080644 73 117 0.0 0.0 0.00 0.00 0.00 99 1018.8
20260904080140 73 119 0.0 0.0 0.00 0.00 0.00 99 1018.6
20260904075637 73 119 0.0 0.0 0.00 0.00 0.00 99 1018.7
20260904075131 73 119 0.0 0.0 0.00 0.00 0.00 99 1018.6
20260904074631 73 117 0.0 0.0 0.00 0.00 0.00 99 1018.7
20260904074125 74 117 0.0 0.0 0.00 0.00 0.00 99 1018.7
20260904073620 74 117 0.0 0.0 0.00 0.00 0.00 99 1018.7
20260904073116 74 104 0.0 0.0 0.00 0.00 0.00 99 1018.7
20260904072612 74 121 0.0 0.0 0.00 0.00 0.00 99 1018.6
20260904072107 74 121 0.0 0.0 0.00 0.00 0.00 99 1018.6
20260904071603 74 121 0.0 0.0 0.00 0.00 0.00 99 1018.6
20260904071057 74 121 0.0 0.0 0.00 0.00 0.00 99 1018.6
20260904070556 74 121 0.0 0.0 0.00 0.00 0.00 99 1018.8
20260904070052 74 121 0.0 0.0 0.00 0.00 0.00 99 1018.8
20260904065546 74 121 0.0 0.0 0.00 0.00 0.00 99 1018.9
20260904065043 74 116 0.0 0.0 0.00 0.00 0.00 99 1018.7
20260904064538 74 109 0.0 0.0 0.00 0.00 0.00 99 1018.9
20260904064032 74 117 0.0 0.0 0.00 0.00 0.00 99 1018.8
20260904063529 74 117 0.0 0.0 0.00 0.00 0.00 99 1018.7
20260904063023 74 117 0.0 0.0 0.00 0.00 0.00 99 1018.8
20260904062520 74 117 0.0 0.0 0.00 0.00 0.00 99 1019.0
20260904062015 74 117 0.0 0.0 0.00 0.00 0.00 99 1018.9
20260904061511 74 117 0.0 0.0 0.00 0.00 0.00 99 1019.0
20260904061007 74 119 0.0 0.0 0.00 0.00 0.00 99 1019.2
20260904060503 74 119 0.0 0.0 0.00 0.00 0.00 99 1019.2
20260904055959 74 119 0.0 0.0 0.00 0.00 0.00 99 1019.2
20260904055454 74 119 0.0 0.0 0.00 0.00 0.00 99 1019.2
20260904054949 74 119 0.0 0.0 0.00 0.00 0.00 99 1019.2
20260904054445 75 119 0.0 0.0 0.00 0.00 0.00 98 1019.1
20260904053940 75 118 0.0 0.0 0.00 0.00 0.00 98 1019.1
20260904053440 75 119 0.0 0.0 0.00 0.00 0.00 98 1019.1
20260904052936 75 119 0.0 0.0 0.00 0.00 0.00 98 1019.1
20260904052432 75 119 0.0 0.0 0.00 0.00 0.00 98 1019.3
20260904051927 75 119 0.0 0.0 0.00 0.00 0.00 98 1019.0
20260904051424 75 119 0.0 0.0 0.00 0.00 0.00 98 1019.0
20260904050918 75 119 0.0 0.0 0.00 0.00 0.00 97 1019.2
20260904050414 75 119 0.0 0.0 0.00 0.00 0.00 97 1019.2
20260904045914 75 119 0.0 0.0 0.00 0.00 0.00 97 1019.1
20260904045410 75 119 0.0 0.0 0.00 0.00 0.00 97 1019.3
20260904044909 75 119 0.0 0.0 0.00 0.00 0.00 96 1019.1
20260904044406 75 119 0.0 0.0 0.00 0.00 0.00 96 1019.1
20260904043901 75 119 0.0 0.0 0.00 0.00 0.00 96 1019.3
20260904043358 75 123 0.0 0.0 0.00 0.00 0.00 96 1018.9
20260904042853 75 122 0.0 0.0 0.00 0.00 0.00 96 1019.0
20260904042349 75 123 0.0 0.0 0.00 0.00 0.00 95 1019.3
20260904041844 76 117 0.0 0.0 0.00 0.00 0.00 95 1019.1
20260904041340 76 122 0.0 0.0 0.00 0.00 0.00 95 1019.1
20260904040836 76 125 0.0 0.0 0.00 0.00 0.00 95 1019.2
20260904040330 76 123 0.0 1.0 0.00 0.00 0.00 95 1019.2
20260904035827 76 120 0.0 0.0 0.00 0.00 0.00 95 1019.0
20260904035323 76 120 0.0 0.0 0.00 0.00 0.00 95 1019.0
20260904034821 76 120 0.0 0.0 0.00 0.00 0.00 94 1019.1
20260904034317 76 120 0.0 0.0 0.00 0.00 0.00 94 1019.1
20260904033813 76 120 0.0 0.0 0.00 0.00 0.00 94 1019.3
20260904033309 76 120 0.0 0.0 0.00 0.00 0.00 94 1019.2
20260904032804 77 120 0.0 0.0 0.00 0.00 0.00 93 1019.3
20260904032259 77 120 0.0 0.0 0.00 0.00 0.00 93 1019.3
20260904031753 77 120 0.0 0.0 0.00 0.00 0.00 93 1019.3
20260904031249 77 120 0.0 0.0 0.00 0.00 0.00 93 1019.3
20260904030744 77 119 0.0 0.0 0.00 0.00 0.00 92 1019.5
20260904030239 77 120 0.0 0.0 0.00 0.00 0.00 92 1019.4
20260904025736 77 102 0.0 1.0 0.00 0.00 0.00 92 1019.2
20260904025230 77 117 0.0 0.0 0.00 0.00 0.00 91 1019.3
20260904024720 77 117 0.0 0.0 0.00 0.00 0.00 91 1019.2
20260904024215 77 117 0.0 0.0 0.00 0.00 0.00 91 1019.2
20260904023712 78 117 0.0 0.0 0.00 0.00 0.00 90 1019.1
20260904023207 78 117 0.0 0.0 0.00 0.00 0.00 90 1019.3
20260904022707 78 117 0.0 0.0 0.00 0.00 0.00 90 1019.2
20260904022203 78 117 0.0 0.0 0.00 0.00 0.00 89 1019.2
20260904021654 78 116 0.0 0.0 0.00 0.00 0.00 89 1019.3
20260904021148 78 117 0.0 0.0 0.00 0.00 0.00 88 1019.3
20260904020645 79 117 0.0 0.0 0.00 0.00 0.00 88 1019.2
20260904020138 79 117 0.0 0.0 0.00 0.00 0.00 87 1019.2
20260904015638 79 117 0.0 0.0 0.00 0.00 0.00 87 1019.2
20260904015137 79 117 0.0 0.0 0.00 0.00 0.00 87 1019.2
20260904014636 79 117 0.0 0.0 0.00 0.00 0.00 87 1019.2
20260904014132 80 117 0.0 0.0 0.00 0.00 0.00 86 1019.2
20260904013629 80 117 0.0 0.0 0.00 0.00 0.00 86 1019.1
20260904013124 80 117 0.0 0.0 0.00 0.00 0.00 85 1019.0
20260904012620 80 117 0.0 0.0 0.00 0.00 0.00 85 1019.0
20260904012119 80 117 0.0 0.0 0.00 0.00 0.00 84 1019.0
20260904011618 80 117 0.0 0.0 0.00 0.00 0.00 83 1019.1
20260904011114 81 117 0.0 0.0 0.00 0.00 0.00 83 1018.9
20260904010609 81 117 0.0 0.0 0.00 0.00 0.00 82 1018.8
20260904010105 81 117 0.0 0.0 0.00 0.00 0.00 80 1018.9
20260904005600 82 117 0.0 0.0 0.00 0.00 0.00 80 1018.7
20260904005055 82 117 0.0 0.0 0.00 0.00 0.00 79 1018.6
20260904004551 82 117 0.0 0.0 0.00 0.00 0.00 77 1018.5
20260904004046 83 117 0.0 0.0 0.00 0.00 0.00 75 1018.6
20260904003542 84 117 0.0 0.0 0.00 0.00 0.00 73 1018.5
20260904003037 84 117 0.0 0.0 0.00 0.00 0.00 72 1018.3
20260904002533 85 117 0.0 0.0 0.00 0.00 0.00 72 1018.3
20260904002032 85 117 0.0 0.0 0.00 0.00 0.00 73 1018.2
20260904001529 86 117 0.0 0.0 0.00 0.00 0.00 72 1018.2
20260904001027 87 117 0.0 0.0 0.00 0.00 0.00 69 1018.2
20260904000527 88 117 0.0 0.0 0.00 0.00 0.00 67 1018.1
20260904000023 89 117 0.0 0.0 0.00 0.00 0.00 64 1018.1
20260903235518 90 117 0.0 0.0 0.00 0.00 0.00 61 1018.2
20260903235014 91 117 0.0 0.0 0.00 0.00 0.00 59 1018.1
20260903234509 92 117 0.0 0.0 0.00 0.00 0.00 57 1017.9
20260903234005 93 116 0.0 1.0 0.00 0.00 0.00 55 1017.9
20260903233501 95 132 0.0 0.0 0.00 0.00 0.00 52 1018.1
20260903232955 96 119 0.0 1.0 0.00 0.00 0.00 52 1018.0
20260903232451 97 136 0.0 1.0 0.00 0.00 0.00 46 1018.0
20260903231950 98 144 1.0 2.0 0.00 0.00 0.00 45 1018.0
20260903231445 98 124 0.0 2.0 0.00 0.00 0.00 44 1017.9
20260903230940 99 156 0.0 0.0 0.00 0.00 0.00 44 1017.9
20260903230436 98 154 0.0 2.0 0.00 0.00 0.00 43 1017.9
20260903225932 98 199 1.0 3.0 0.00 0.00 0.00 43 1017.8
20260903225427 99 192 1.0 5.0 0.00 0.00 0.00 42 1017.8
20260903224923 100 189 1.0 2.0 0.00 0.00 0.00 42 1018.0
20260903224419 100 177 0.0 3.0 0.00 0.00 0.00 41 1017.9
20260903223915 100 245 2.0 3.0 0.00 0.00 0.00 41 1017.8
20260903223414 100 240 2.0 3.0 0.00 0.00 0.00 41 1017.7
20260903222913 101 105 1.0 2.0 0.00 0.00 0.00 40 1018.0
20260903222409 100 191 2.0 2.0 0.00 0.00 0.00 40 1017.8
20260903221903 100 353 2.0 2.0 0.00 0.00 0.00 41 1017.9
20260903221401 100 261 1.0 2.0 0.00 0.00 0.00 40 1017.9
20260903220900 100 164 1.0 2.0 0.00 0.00 0.00 40 1017.9